#timestamp,LO_Frequency,Hit 
1497632415.8,286047014.6,N
1497632435.6,286047018.6,N
1497632455.4,286047015.8,N
1497632475.3,286047017.2,N
1497632495.1,286047015.6,N
1497632496.0,286047015.6,N
1497632515.8,286047018.7,N
1497632535.7,286047018.8,N
1497632555.5,286047016.3,N
1497632575.3,286047017.2,N
1497632595.1,286047016.9,N
1497632615.9,286047015.7,N
1497632635.7,286047015.8,N
1497632655.5,286047018.7,N
1497632675.4,286047017.6,N
1497632695.2,286047020.4,N
1497632715.0,286047016.4,N
1497632715.9,286047016.4,N
1497632735.8,286047017.3,N
1497632755.6,286047016.6,N
1497632775.4,286047016.8,N
1497632795.3,286047014.5,N
1497632815.1,286047016.4,N
1497632816.0,286047016.4,N
1497632835.8,286047018.4,N
1497632855.6,286047017.1,N
1497632875.5,286047014.1,N
1497632895.3,286047017.7,N
1497632915.1,286047015.7,N
1497632935.9,286047015.8,N
1497632955.7,286047018.2,N
1497632975.5,286047016.4,N
1497632995.4,286047017.9,N
1497633015.2,286047020.2,N
1497633035.0,286047015.7,N
1497633035.9,286047015.7,N
1497633055.8,286047018.0,N
1497633075.6,286047017.2,N
1497633095.4,286047018.4,N
1497633115.2,286047018.0,N
1497633135.1,286047017.9,N
1497633136.0,286047017.9,N
1497633155.8,286047019.1,N
1497633175.6,286047019.1,N
1497633195.5,286047022.0,N
1497633215.3,286047019.0,N
1497633235.1,286047019.3,N
1497633255.9,286047019.6,N
1497633275.7,286047019.0,N
1497633295.5,286047020.1,N
1497633315.4,286047020.9,N
1497633335.2,286047021.8,N
1497633355.0,286047019.4,N
1497633355.9,286047019.4,N
1497633375.8,286047019.0,N
1497633395.6,286047021.5,N
1497633415.4,286047021.5,N
1497633435.3,286047021.6,N
1497633455.1,286047019.0,N
1497633456.0,286047019.0,N
1497633475.8,286047019.0,N
1497633495.7,286047022.0,N
1497633515.5,286047020.5,N
1497633535.3,286047023.2,N
1497633555.1,286047021.3,N
1497633575.9,286047020.9,N
1497633595.7,286047020.5,N
1497633615.5,286047022.5,N
1497633635.4,286047020.6,N
1497633655.2,286047020.8,N
1497633675.0,286047020.8,N
1497633675.9,286047020.8,N
1497633695.8,286047020.8,N
1497633715.6,286047022.9,N
1497633735.4,286047024.3,N
1497633755.3,286047024.1,N
1497633775.1,286047025.0,Y
1497633795.8,286047016.7,N
1497633815.7,286047012.7,N
1497633835.5,286047015.2,N
1497633855.3,286047018.8,N
1497633875.2,286047016.7,N
1497633895.9,286047018.8,N
1497633915.7,286047017.2,N
1497633935.5,286047016.5,N
1497633955.4,286047018.3,N
1497633975.2,286047017.5,N
1497633995.0,286047020.2,N
1497633995.9,286047020.2,N
1497634015.8,286047019.1,N
1497634035.6,286047021.5,N
1497634055.4,286047020.1,N
1497634075.3,286047021.9,N
1497634095.1,286047019.9,N
1497634096.0,286047019.9,N
1497634115.8,286047020.1,N
1497634135.7,286047019.0,N
1497634155.5,286047023.0,N
1497634175.3,286047022.4,N
1497634195.2,286047021.2,N
1497634215.9,286047022.0,N
1497634235.7,286047022.9,N
1497634255.6,286047022.4,N
1497634275.4,286047020.6,N
1497634295.2,286047021.4,N
1497634315.0,286047021.5,N
1497634315.9,286047021.5,N
1497634335.8,286047025.1,Y
1497634355.6,286047013.8,N
1497634375.4,286047013.4,N
1497634395.3,286047014.3,N
1497634415.1,286047011.4,N
1497634435.8,286047010.9,N
1497634455.7,286047013.1,N
1497634475.5,286047013.8,N
1497634495.3,286047011.2,N
1497634515.2,286047012.2,N
1497634535.9,286047013.6,N
1497634555.7,286047015.5,N
1497634575.6,286047014.4,N
1497634595.4,286047014.2,N
1497634615.2,286047018.8,N
1497634635.0,286047018.3,N
1497634636.0,286047018.3,N
1497634655.8,286047016.6,N
1497634675.6,286047016.8,N
1497634695.4,286047014.6,N
1497634715.3,286047014.3,N
1497634735.1,286047016.9,N
1497634755.8,286047016.9,N
1497634775.7,286047015.9,N
1497634795.5,286047018.3,N
1497634815.3,286047018.6,N
1497634835.2,286047016.2,N
1497634855.9,286047017.5,N
1497634875.7,286047018.0,N
1497634895.6,286047019.3,N
1497634915.4,286047018.9,N
1497634935.2,286047021.7,N
1497634955.1,286047023.2,Y
1497634956.0,286047023.2,Y
1497634975.8,286046998.3,N
1497634995.6,286046998.5,N
1497635015.5,286046997.0,N
1497635035.3,286046997.6,N
1497635055.1,286046999.4,N
1497635075.9,286046996.7,N
1497635095.7,286046996.8,N
1497635115.5,286047000.5,N
1497635135.4,286047000.0,N
1497635155.2,286047000.0,N
1497635175.0,286047001.2,N
1497635175.9,286047001.2,N
1497635195.8,286047000.5,N
1497635215.6,286046999.7,N
1497635235.4,286046998.7,N
1497635255.2,286047001.1,N
1497635275.1,286046998.2,N
1497635276.0,286046998.2,N
1497635295.8,286047002.6,N
1497635315.6,286046999.8,N
1497635335.5,286047001.6,N
1497635355.3,286046999.9,N
1497635375.1,286047000.2,N
1497635395.9,286047000.5,N
1497635415.7,286047001.5,N
1497635435.5,286047002.5,N
1497635455.4,286047002.8,N
1497635475.2,286047001.9,N
1497635495.0,286047002.2,N
1497635495.9,286047002.2,N
1497635515.8,286047002.7,N
1497635535.6,286047002.8,N
1497635555.4,286046999.7,N
1497635575.2,286047004.4,N
1497635595.1,286047003.7,N
1497635596.0,286047003.7,N
1497635615.8,286047004.7,N
1497635635.6,286047001.3,N
1497635655.5,286047003.5,N
1497635675.3,286047004.8,N
1497635695.1,286047008.7,N
1497635715.9,286047008.8,N
1497635735.7,286047006.6,N
1497635755.5,286047008.9,N
1497635775.4,286047008.2,N
1497635795.2,286047006.5,N
1497635815.0,286047010.5,N
1497635815.9,286047010.5,N
1497635835.8,286047008.9,N
1497635855.6,286047009.1,N
1497635875.4,286047008.7,N
1497635895.2,286047006.3,N
1497635915.1,286047008.5,N
1497635916.0,286047008.5,N
1497635935.8,286047008.0,N
1497635955.6,286047008.8,N
1497635975.5,286047009.7,N
1497635995.3,286047010.5,N
